Flag for U.S.A. Weather past 2 weeks in Anchorage, Alaska, U.S.A.

Now
50 °F

Overcast.


Feels Like: 47 °F
Forecast: 41 / 47 °F
Wind: 7 mph from South

Location: Lake Hood Seaplane

Current Time: Apr 26, 2015 at 11:43:04 PM

Latest Report: Apr 26, 2015 at 10:53 PM


Visibility: 10 mi

Pressure: 29.56 "Hg

Humidity: 39%

Dew point: 26 °F

Location of AnchorageLocation

Historic Weather in Anchorage — Graph

°F

Anchorage temperature yesterday

Maximum temperature yesterday: 53 °F (at 4:53 PM)
Minimum temperature yesterday: 37 °F (at 2:53 AM)
Average temperature yesterday: 45 °F

Past Weeks' High & Low Weather Summary

 TemperatureHumidityPressure
High57 °F (Apr 26, 2:53 PM)100% (Apr 12, 9:02 AM)30.05 "Hg (Apr 12, 9:02 AM)
Low27 °F (Apr 14, 3:53 AM)21% (Apr 24, 4:53 PM)29.28 "Hg (Apr 11, 9:53 PM)
Average40 °F60%29.68 "Hg
* Reported Apr 11 9:53 PM — Apr 26 9:53 PM, Anchorage, Weather by CustomWeather, © 2015

Note: Actual official high and low records may vary slightly from our data, if they occured in-between our weather recording intervals... More about our weather records

Advertising

Anchorage weather history for previous 24 hours

 ConditionsComfort  
Time TempWeatherWind HumidityBarometerVisibility
9:53 PM
Sun, Apr 26
50 °FScattered clouds.5 mph43%29.55 "Hg10 mi
8:53 PM51 °FPartly sunny.7 mph35%29.54 "Hg10 mi
7:53 PM53 °FScattered clouds.6 mph28%29.54 "Hg10 mi
6:53 PM53 °FSunny.6 mph30%29.53 "Hg10 mi
5:53 PM57 °FOvercast.3 mph26%29.53 "Hg10 mi
4:53 PM56 °FPartly sunny.No wind30%29.54 "Hg10 mi
3:53 PM54 °FSunny.6 mph33%29.56 "Hg10 mi
2:53 PM57 °FSunny.8 mph24%29.57 "Hg10 mi
1:53 PM53 °FPassing clouds.6 mph32%29.58 "Hg10 mi
12:53 PM51 °FSunny.6 mph33%29.60 "Hg10 mi
11:53 AM48 °FSunny.5 mph37%29.62 "Hg10 mi
10:53 AM45 °FSunny.6 mph44%29.63 "Hg10 mi
9:53 AM41 °FSunny.8 mph49%29.65 "Hg10 mi
8:53 AM38 °FSunny.5 mph55%29.65 "Hg10 mi
7:53 AM37 °FSunny.5 mph54%29.67 "Hg10 mi
6:53 AM36 °FClear.8 mph57%29.68 "Hg10 mi
5:53 AM36 °FClear.9 mph57%29.69 "Hg10 mi
4:53 AM36 °FPassing clouds.7 mph59%29.70 "Hg10 mi
3:53 AM37 °FClear.9 mph60%29.71 "Hg10 mi
2:53 AM37 °FClear.6 mph62%29.73 "Hg10 mi
1:53 AM39 °FClear.7 mph60%29.74 "Hg10 mi
12:53 AM41 °FClear.No wind60%29.76 "Hg10 mi
11:53 PM
Sat, Apr 25
44 °FPassing clouds.6 mph55%29.76 "Hg10 mi
Weather by CustomWeather, © 2015

See weather overviewHow to use our weather pages